Weather WX

World > North America > United States > Ohio

Blue Creek, Ohio Regional Weather

Lat: 38.78N, Lon: 83.33W
Wx Zone: OHZ081
Warning FLW WEATHER ALERT - EXCESSIVE HEAT WARNING (More Info. Click Here) Warning
Feedback

Blue Creek, OH Regional Weather

Expires:201907201900;;362410
ASUS41 KCLE 201802
RWRCLE
OHIO REGIONAL WEATHER ROUNDUP
NATIONAL WEATHER SERVICE CLEVELAND, OH
200 PM EDT SAT JUL 20 2019

NOTE: "FAIR" INDICATES FEW OR NO CLOUDS BELOW 12,000 FEET WITH NO
SIGNIFICANT WEATHER AND/OR OBSTRUCTIONS TO VISIBILITY.


OHZ042-051>053-060>062-070>072-077>081-201900-
  SOUTHWEST OHIO
  
CITY           SKY/WX    TMP DP  RH WIND       PRES   REMARKS
CINC-COVINGTON FAIR      91  72  53 S21       29.97F HX  98           
CINC-LUNKEN    FAIR      91  74  57 S16       29.96F HX 100           
HAMILTON       NOT AVBL                                               
DAYTON         FAIR      89  75  63 S13       29.96F HX  99           
WRIGHT-PAT AFB FAIR      91  74  57 S17       29.95F HX 100           
DAYTON GENERAL FAIR      92  73  53 S17       29.96R HX 100           
WILMINGTON     FAIR      89  74  60 S16       29.96S HX  98           
$$


SKY/WX - Weather  TMP - Temperature  DP - Dew Point  RH - Relative Humidity
WIND - Wind Direction/Speed PRES - Barometric Pressure VSB - Visibility
WCI - Wind Chill Index E13G22 Wind - East Wind 13 mph/Gusts of 22 mph